Duchifat 3
1 44854U 19089C   25080.50078986  .00064426  00000-0  16741-2 0  9993
2 44854  36.9457 141.3917 0005862 235.5501 124.4699 15.37864799290644
TO-108
1 44881U 19093C   25080.80677834  .00003285  00000-0  38763-3 0  9993
2 44881  97.7969 158.1218 0015012 130.2202 230.0330 14.85315886284238
FloripaSat 1
1 44885U 19093G   25080.78727472  .00016808  00000-0  14597-2 0  9991
2 44885  97.8162 168.2987 0012302 113.3207 246.9310 14.97033300284807
RS-44
1 44909U 19096E   25080.57608572  .00000017  00000-0  16268-4 0  9991
2 44909  82.5168 280.4470 0218347 122.5180 239.7226 12.79739328244458
UPMSat 2
1 46276U 20061E   25080.15609005  .00078416  00000-0  10758-2 0  9994
2 46276  97.2537 152.4713 0001834 159.6013 200.5316 15.57085452252901
SALSAT
1 46495U 20068K   25080.47359553  .00017046  00000-0  77124-3 0  9992
2 46495  97.8545  54.9301 0014228  81.7398 278.5449 15.20894772246346
CubeSX-Sirius-HSE
1 47951U 21022V   25080.87764522  .00176885  00000-0  20846-2 0  9996
2 47951  97.4265 349.5797 0006074 184.1480 175.9728 15.60767655221280
CubeSX-HSE
1 47952U 21022W   25080.84512340  .00185837  00000-0  21389-2 0  9993
2 47952  97.4271 349.7555 0006387 177.7963 182.3324 15.61355082221296
KSU-Cubesat
1 47954U 21022Y   25080.48433988  .07553150  25571-5  14288-2 0  9994
2 47954  97.3979 355.1054 0007890 193.9656 166.1422 16.32002652221320
GRBAlpha
1 47959U 21022AD  25080.87570845  .00174586  00000-0  20317-2 0  9996
2 47959  97.4256 349.9301 0006059 183.0882 177.0339 15.61105764220121
Orbicraft-Zorkiy
1 47960U 21022AE  25080.68822974  .00454016  00000-0  22596-2 0  9990
2 47960  97.4218 353.5648 0007472 152.4174 207.7491 15.80699005221005
TUBIN
1 48900U 21059X   25080.88052517  .00071334  00000-0  11910-2 0  9991
2 48900  97.6705 244.1542 0004399 184.3594 175.7620 15.51695644207641
LEDSAT
1 49069U 21073D   25080.71287526  .00074845  00000-0  13714-2 0  9990
2 49069  97.3956 159.5707 0010619  11.2906 348.8581 15.48991944199021
CUTE
1 49263U 21088D   25080.57802808  .00024253  00000-0  54838-3 0  9993
2 49263  97.4570 154.6999 0009871 167.2750 192.8749 15.43109953192073
TeikyoSat 4
1 49396U 21102B   25080.56281897  .00004782  00000-0  32182-3 0  9998
2 49396  97.4218 121.8582 0014048  53.9066 306.3461 15.07096230184499
Z-Sat
1 49399U 21102E   25080.84436173  .00010951  00000-0  61460-3 0  9997
2 49399  97.3919 124.7573 0018926  26.0151 334.2027 15.13362879184913
KOSEN 1
1 49402U 21102H   25080.86240249  .00017092  00000-0  82431-3 0  9995
2 49402  97.3826 127.6174 0016059   3.9336 356.2022 15.18652214185187
HO-113
1 50466U 21131B   25080.82570007  .00001984  00000-0  63552-3 0  9999
2 50466  98.5086 170.5870 0004377  31.3862 328.7587 14.40643791169961
IRIS-A
1 51044U 22002BN  25080.71645523  .00157841  00000-0  15083-2 0  9993
2 51044  97.3349 156.9696 0002929 144.3744 215.7713 15.66220605177264
Foresail-1
1 52766U 22057AL  25080.38198990  .00138457  00000-0  14068-2 0  9993
2 52766  97.6018 224.3571 0006639 225.5416 134.5301 15.64713611157243
SNUGLITE 2
1 52899U 22065F   25080.61076210  .00003844  00000-0  76123-3 0  9997
2 52899  98.1543 223.4354 0007473  12.9741 347.1651 14.62851833144796
IO-117
1 53106U 22080B   25051.21822557 -.00000003  00000-0  00000+0 0  9995
2 53106  70.1434 106.3440 0008542  48.0089 312.1297  6.42557744 61200
UmKA 1 (RS40S)
1 57172U 23091G   25080.87440225  .00014289  00000-0  78974-3 0  9996
2 57172  97.5690 136.6996 0013546 246.2469 113.7342 15.13925558 95416
CubeBel-2 (EU11S)
1 57175U 23091K   25080.89437501  .00022997  00000-0  11609-2 0  9990
2 57175  97.5689 137.4291 0011595 255.4007 104.5941 15.17052906 95466
VERONIKA
1 58261U 23174F   25080.80968763  .00127311  00000-0  21856-2 0  9990
2 58261  97.4201 163.3993 0005886 319.6087  40.4727 15.50687326 76248
KAFASAT
1 58317U 23174BP  25080.75640581  .00714239  19948-3  26313-2 0  9999
2 58317  97.4014 167.9552 0009424 270.3034  89.7157 15.88161149 76569
ENSO
1 58470U 23185J   25080.84190662  .00081924  00000-0  16722-2 0  9998
2 58470  97.3817 153.9391 0006951  11.0945 349.0456 15.45869823 72677
EIRSAT-1
1 58472U 23185L   25080.88681128  .00107930  00000-0  18210-2 0  9996
2 58472  97.3801 154.9042 0005576   7.6777 352.4560 15.51252357 72749
SONATE-2
1 59112U 24043Q   25080.78949042  .00035132  00000-0  11366-2 0  9992
2 59112  97.5005 210.6257 0011562  41.2546 318.9566 15.31910784 58107
MO-122
1 60209U 24125G   25080.81926320  .00037945  00000-0  12096-2 0  9995
2 60209  97.2906 293.4723 0021551  65.3281 295.0202 15.32202808 39723
GRBBeta
1 60237U 24128C   25080.12572303  .00012660  00000-0  96693-3 0  9994
2 60237  61.9942 359.8776 0044414  39.9643 320.4701 15.01523179 38111
Curium One
1 60242U 24128H   25080.74381853  .00018690  00000-0  13544-2 0  9998
2 60242  61.9838 357.0492 0044457  35.5189 324.8847 15.03263928 38226
ROBUSTA-3A
1 60243U 24128J   25080.12524929  .00021137  00000-0  15481-2 0  9996
2 60243  61.9912 359.7886 0042734  33.2278 327.1483 15.02862852 38127
CatSat
1 60246U 24125J   25080.54357552  .00018312  00000-0  64846-3 0  9999
2 60246  97.2691 293.2429 0044918  21.1861 339.1226 15.28197001 37752
HYPERVIEW-1G (RS66S)
1 61772U 24199AP  25080.87620833  .00042632  00000-0  14136-2 0  9994
2 61772  97.3669 310.0663 0016446 115.7325 244.5616 15.31006579 64745
AO-123
1 61781U 24199AY  25080.86602394  .00016179  00000-0  61486-3 0  9993
2 61781  97.3677 309.6390 0017881 117.6390 242.6667 15.26725538 64711
ZIMSAT 2
1 61783U 24199BA  25080.86952872  .00065541  00000-0  20029-2 0  9998
2 61783  97.3662 310.2198 0017213 114.9141 245.3892 15.33493123 67908
POEM 4 (BGS ARPIT)
1 62461U 24253C   25080.76680344  .00546258  14630-3  92270-3 0  9998
2 62461  55.2122 226.7906 0000927 328.8734  31.2270 16.02226571 12823
HADES-R (SO-124)
1 62690U 25009CK  25080.21019052  .00059700  00000-0  26342-2 0  9994
2 62690  97.4144 161.7150 0001652  16.4010 343.7279 15.21537773  9893
HYDRA-T
1 62692U 25009CM  25080.46889491  .00061654  00000-0  27061-2 0  9995
2 62692  97.4147 161.9791 0001476   8.1323 351.9936 15.21708274  9932
